Artesia, NM

10:52 AM MST on November 22, 2019 (GMT -0700)
Artesia Municipal

Weather History for KATS - October, 2019

Change the Weather History Date:

Sunday, October 20, 2019

  Actual Average Record
Temperature  
Mean Temperature 66 °F -  
Max Temperature 84 °F 73 °F 91 °F (2001)
Min Temperature 48 °F 39 °F 23 °F (1989)
Cooling Degree Days 1    
Growing Degree Days 16 (Base 50)    
Moisture  
Dew Point 31 °F    
Average Humidity 33    
Maximum Humidity 66    
Minimum Humidity 11    
Precipitation  
Precipitation 0.00 in - - ()
Sea Level Pressure  
Sea Level Pressure 29.81 in    
Wind  
Wind Speed 11 mph (WSW)    
Max Wind Speed 26 mph    
Max Gust Speed 33 mph    
Visibility 10 miles    
Events      
Averages and records for this station are not official NWS values.
T = Trace of Precipitation, MM = Missing Value Source: NWS Daily Summary

Daily Weather History Graph

Daily Weather History Graph

Search for Another Location

Airport or City:

Astronomy

Oct. 20, 2019 Rise Set
Actual Time 7:05 AM MDT 6:19 PM MDT
Civil Twilight 6:40 AM MDT 6:44 PM MDT
Nautical Twilight 6:11 AM MDT 7:12 PM MDT
Astronomical Twilight 5:43 AM MDT 7:41 PM MDT
Moon 11:42 PM MDT (10/20) 1:23 PM MDT (10/20)
Length of Visible Light 12h 03m
Length of Day
11h 13m
Waning Gibbous, 58% of the Moon is Illuminated
Oct 20
Waning Gibbous
Oct 21
Last Quarter
Oct 27
New
Nov 4
First Quarter
Nov 12
Full

Hourly Weather History & Observations

Time (MDT) Temp. Dew Point Humidity Pressure Visibility Wind Dir Wind Speed Gust Speed Precip Events Conditions
12:15 AM 53.6 °F 35.6 °F 51% 29.86 in 10.0 mi SSW 5.8 mph - N/A   Clear
12:35 AM 53.6 °F 35.6 °F 51% 29.85 in 10.0 mi Calm Calm - N/A   Clear
12:55 AM 53.6 °F 35.6 °F 51% 29.84 in 10.0 mi SSE 5.8 mph - N/A   Clear
1:15 AM 51.8 °F 37.4 °F 58% 29.83 in 10.0 mi South 10.4 mph - N/A   Clear
1:35 AM 53.6 °F 35.6 °F 51% 29.82 in 10.0 mi South 10.4 mph - N/A   Clear
1:55 AM 53.6 °F 37.4 °F 54% 29.82 in 10.0 mi South 10.4 mph - N/A   Clear
2:15 AM 51.8 °F 37.4 °F 58% 29.82 in 10.0 mi South 5.8 mph - N/A   Clear
2:35 AM 53.6 °F 37.4 °F 54% 29.82 in 10.0 mi SSE 9.2 mph - N/A   Clear
2:55 AM 51.8 °F 37.4 °F 58% 29.82 in 10.0 mi South 9.2 mph - N/A   Clear
3:15 AM 50.0 °F 37.4 °F 62% 29.82 in 10.0 mi South 6.9 mph - N/A   Clear
3:35 AM 51.8 °F 37.4 °F 58% 29.81 in 10.0 mi South 9.2 mph - N/A   Clear
3:55 AM 51.8 °F 37.4 °F 58% 29.80 in 10.0 mi South 9.2 mph - N/A   Clear
4:15 AM 50.0 °F 37.4 °F 62% 29.80 in 10.0 mi South 9.2 mph - N/A   Clear
4:35 AM 48.2 °F 37.4 °F 66% 29.80 in 10.0 mi SSW 8.1 mph - N/A   Clear
4:55 AM 50.0 °F 35.6 °F 58% 29.79 in 10.0 mi South 13.8 mph - N/A   Clear
5:15 AM 51.8 °F 35.6 °F 54% 29.80 in 10.0 mi SSW 12.7 mph - N/A   Clear
5:35 AM 50.0 °F 35.6 °F 58% 29.80 in 10.0 mi SSW 13.8 mph - N/A   Clear
5:55 AM 50.0 °F 37.4 °F 62% 29.80 in 10.0 mi SSW 15.0 mph - N/A   Clear
6:15 AM 53.6 °F 39.2 °F 58% 29.80 in 10.0 mi SSW 15.0 mph - N/A   Clear
6:35 AM 51.8 °F 39.2 °F 62% 29.80 in 10.0 mi SSW 13.8 mph - N/A   Clear
6:55 AM 53.6 °F 39.2 °F 58% 29.80 in 10.0 mi SSW 16.1 mph - N/A   Clear
7:15 AM 53.6 °F 39.2 °F 58% 29.80 in 10.0 mi SW 15.0 mph - N/A   Clear
7:35 AM 53.6 °F 41.0 °F 62% 29.80 in 10.0 mi SSW 10.4 mph - N/A   Clear
7:55 AM 55.4 °F 41.0 °F 58% 29.81 in 10.0 mi SSW 9.2 mph - N/A   Clear
8:15 AM 59.0 °F 42.8 °F 55% 29.81 in 10.0 mi SW 8.1 mph - N/A   Clear
8:35 AM 60.8 °F 41.0 °F 48% 29.82 in 10.0 mi SSW 6.9 mph - N/A   Clear
8:55 AM 64.4 °F 42.8 °F 45% 29.82 in 10.0 mi South 4.6 mph - N/A   Clear
9:15 AM 66.2 °F 42.8 °F 43% 29.83 in 10.0 mi Calm Calm - N/A   Clear
9:35 AM 69.8 °F 39.2 °F 33% 29.82 in 10.0 mi Variable 5.8 mph - N/A   Clear
9:55 AM 73.4 °F 35.6 °F 25% 29.81 in 10.0 mi SW 16.1 mph - N/A   Clear
10:15 AM 75.2 °F 33.8 °F 22% 29.80 in 10.0 mi WSW 18.4 mph 25.3 mph N/A   Clear
10:35 AM 77.0 °F 33.8 °F 21% 29.80 in 10.0 mi West 17.3 mph - N/A   Clear
10:55 AM 78.8 °F 33.8 °F 20% 29.81 in 10.0 mi West 17.3 mph - N/A   Clear
11:15 AM 78.8 °F 32.0 °F 18% 29.80 in 10.0 mi WSW 12.7 mph 18.4 mph N/A   Clear
11:35 AM 77.0 °F 37.4 °F 24% 29.80 in 10.0 mi West 10.4 mph 18.4 mph N/A   Clear
11:55 AM 78.8 °F 32.0 °F 18% 29.79 in 10.0 mi West 8.1 mph 15.0 mph N/A   Clear
12:15 PM 80.6 °F 33.8 °F 18% 29.78 in 10.0 mi West 13.8 mph - N/A   Clear
12:35 PM 80.6 °F 33.8 °F 18% 29.77 in 10.0 mi SW 16.1 mph 23.0 mph N/A   Clear
12:55 PM 82.4 °F 32.0 °F 16% 29.75 in 10.0 mi WSW 19.6 mph 26.5 mph N/A   Clear
1:15 PM 82.4 °F 32.0 °F 16% 29.75 in 10.0 mi WNW 11.5 mph 26.5 mph N/A   Clear
1:35 PM 82.4 °F 30.2 °F 15% 29.74 in 10.0 mi West 16.1 mph 23.0 mph N/A   Clear
1:55 PM 82.4 °F 32.0 °F 16% 29.73 in 10.0 mi West 16.1 mph 24.2 mph N/A   Clear
2:15 PM 84.2 °F 30.2 °F 14% 29.72 in 10.0 mi WSW 25.3 mph - N/A   Clear
2:35 PM 84.2 °F 26.6 °F 12% 29.72 in 10.0 mi WNW 16.1 mph - N/A   Clear
2:55 PM 84.2 °F 30.2 °F 14% 29.72 in 10.0 mi WSW 21.9 mph - N/A   Clear
3:15 PM 84.2 °F 24.8 °F 11% 29.72 in 10.0 mi West 23.0 mph - N/A   Clear
3:35 PM 84.2 °F 24.8 °F 11% 29.72 in 10.0 mi WNW 24.2 mph 29.9 mph N/A   Clear
3:55 PM 84.2 °F 26.6 °F 12% 29.73 in 10.0 mi NW 17.3 mph 31.1 mph N/A   Clear
4:15 PM 82.4 °F 24.8 °F 12% 29.73 in 10.0 mi NW 26.5 mph 33.4 mph N/A   Clear
4:35 PM 80.6 °F 24.8 °F 13% 29.75 in 10.0 mi NW 25.3 mph 32.2 mph N/A   Clear
4:55 PM 80.6 °F 26.6 °F 14% 29.76 in 10.0 mi NW 21.9 mph 29.9 mph N/A   Clear
5:15 PM 78.8 °F 26.6 °F 15% 29.77 in 10.0 mi WNW 16.1 mph 24.2 mph N/A   Clear
5:35 PM 78.8 °F 24.8 °F 14% 29.77 in 10.0 mi WNW 15.0 mph 23.0 mph N/A   Clear
5:55 PM 77.0 °F 26.6 °F 16% 29.78 in 10.0 mi WNW 9.2 mph - N/A   Clear
6:15 PM 73.4 °F 26.6 °F 18% 29.79 in 10.0 mi WNW 9.2 mph - N/A   Clear
6:35 PM 71.6 °F 26.6 °F 19% 29.79 in 10.0 mi WNW 9.2 mph - N/A   Clear
6:55 PM 68.0 °F 26.6 °F 21% 29.80 in 10.0 mi WNW 11.5 mph - N/A   Clear
7:15 PM 68.0 °F 24.8 °F 20% 29.81 in 10.0 mi West 11.5 mph - N/A   Clear
7:35 PM 68.0 °F 24.8 °F 20% 29.82 in 10.0 mi WNW 12.7 mph - N/A   Clear
7:55 PM 64.4 °F 24.8 °F 22% 29.84 in 10.0 mi WNW 10.4 mph - N/A   Clear
8:15 PM 64.4 °F 24.8 °F 22% 29.86 in 10.0 mi NW 11.5 mph - N/A   Clear
8:35 PM 62.6 °F 23.0 °F 22% 29.87 in 10.0 mi WNW 12.7 mph - N/A   Clear
8:55 PM 62.6 °F 21.2 °F 20% 29.88 in 10.0 mi North 18.4 mph 24.2 mph N/A   Clear
9:15 PM 62.6 °F 21.2 °F 20% 29.90 in 10.0 mi North 18.4 mph - N/A   Clear
9:35 PM 60.8 °F 19.4 °F 20% 29.90 in 10.0 mi North 19.6 mph - N/A   Clear
9:55 PM 59.0 °F 17.6 °F 20% 29.92 in 10.0 mi North 17.3 mph - N/A   Clear
10:15 PM 57.2 °F 17.6 °F 21% 29.93 in 10.0 mi NNE 13.8 mph 20.7 mph N/A   Clear
10:35 PM 57.2 °F 15.8 °F 20% 29.94 in 10.0 mi North 16.1 mph 21.9 mph N/A   Clear
10:55 PM 55.4 °F 14.0 °F 20% 29.95 in 10.0 mi NNE 13.8 mph - N/A   Clear
11:15 PM 55.4 °F 12.2 °F 18% 29.96 in 10.0 mi NNE 12.7 mph - N/A   Clear
11:35 PM 53.6 °F 12.2 °F 19% 29.96 in 10.0 mi NNE 10.4 mph - N/A   Clear
11:55 PM 53.6 °F 12.2 °F 19% 29.97 in 10.0 mi NNE 6.9 mph - N/A   Clear